COSMOS 1691 DEB, 19111

Orbit data source: Space-Track

COSMOS 1691 DEB, 19111 is space debris in LEO originally from a launch on Wed, 09 Oct 1985 UTC launched from the Plesetsk Missile And Space Complex (PKMTR). Debris objects in space refer to the collection of defunct objects orbiting the Earth. Examples of debris include non-operational satellites, rocket bodies, and fragments generated from explosions, collisions, or faulty payload assembly.

Loading next visibility...
Identifier
19111, 1985-094W
Orbit
LEO
Country
Flag of CISCIS
Related business
Manufacturer
Unknown
Mission
Spacecraft
Bus & Motor
Unknown
Mass
Unknown
Launch date (UTC)
1985-10-09 (40 years ago)
Launch vehicle
Unknown
Launch site
Plesetsk Missile And Space Complex (PKMTR)
Object type
Payload
Rocket body
Debris
Shape & HBR
Unknown shape, 0.1 m
Radar Cross Section
Small (<0.1 m²)

Expand to show TLE details & history
Last TLE update: 2 days ago

TLE from 2 days ago
0 COSMOS 1691 DEB
1 19111U 85094W   26035.47769534  .00000262  00000-0  12645-2 0  9990
2 19111  82.6056 290.6787 0015819 358.6186 180.2017 12.70198222756441
Epoch: 2026-02-04T11:27Z
TLE epoch observation values (Epoch: 2026-02-04T11:27:52.877Z)
Latitude
1.06803°
Longitude
163.92673°
Altitude
1,396.019 km
Speed
7.156 km/s
True Right ascension
07h 22m 09s
True Declination
1° 03' 44"
Sunlit
Object was in full shadow at epoch
Visualization orbit readout
Latitude
Unknown
Longitude
Unknown
Altitude
Unknown
Speed
Unknown
Apparent Right ascension
Unknown
Apparent Declination
Unknown
Sunlit
N/A
Visualization observer readout
Local Sidereal Time
17:10:37
Azimuth
Unknown
Elevation
Unknown
Doppler factor
Unknown
Orbital elements
Apogee altitude
1,390.711 km
Perigee altitude
1,366.171 km
Semi-major axis
7,756.578 km
Eccentricity
0.00158
Inclination
82.6056°
RAAN
290.6787°
Arg. of periapsis
358.6186°
True anomaly
180.20106°
Mean anomaly
180.2017°
Eccentric anomaly
180.20138°
Mean motion
3.17715 °/min
Orbital period
113.31 mins
BSTAR
0.0012645
Loading maneuver chart data...
Computing Atmospheric mass density...
Loading historical data...
Loading historical data...
Loading historical data...
Loading historical data...
Loading historical data...
Loading historical data...
Loading historical data...

Documentation

Showing up to 5 results
|